sat.trackr.live / text

‹ back to catalog

STARLINK-30503

NORAD 57975 · 2023-151M

PAYLOAD ACTIVE UNKNOWN

§ Identity

Operator
Country
US
Launch date
2023-09-30
Launch site
AFETR
Launch vehicle
Mass (kg)
RCS (m²)

Purposes: comms

External: N2YO · Heavens-Above · Gunter

§ Orbital elements

Epoch: 2026-05-24T19:23:56.957568Z

Period
94.27 min
Inclination
42.9981°
Eccentricity
0.0000499
Mean motion
15.27593627 rev/d
Perigee alt
482.7 km
Apogee alt
483.4 km
Semi-major
6,861.1 km
B*
1.7228e-4
RAAN
266.4442°
Arg perigee
108.6022°
Mean anomaly
251.4884°
Rev number
14,740

§ Raw data

STARLINK-305031 57975U 23151M   26144.80829812  .00004484  00000+0  17228-3 0  99922 57975  42.9981 266.4442 0000499 108.6022 251.4884 15.27593627147402

JSON: /api/v1/satellites/57975 · /tle

For live sub-satellite position, see the globe view (requires WebGL).

§ Visibility from observer

Set your observer location to see the next 7 days of passes ≥ 10°. The values pass through the URL so the page stays shareable.

No JS? Fill the form by hand. The geolocation button needs JavaScript.